Weather History for KABI - July, 2012

Change the Weather History Date:

Sunday, July 22, 2012

  Actual Average Record
Temperature  
Mean Temperature 91 °F 84 °F  
Max Temperature 104 °F 95 °F 106 °F (1943)
Min Temperature 77 °F 72 °F 64 °F (1970)
Degree Days  
Heating Degree Days 0 0  
Month to date heating degree days 0 0  
Since 1 June heating degree days 0 1  
Since 1 July heating degree days 0 0  
Cooling Degree Days 26 19  
Month to date cooling degree days 439 391  
Year to date cooling degree days 1638 1223  
Since 1 June cooling degree days 973 826  
Growing Degree Days 40 (Base 50)    
Moisture  
Dew Point 59 °F    
Average Humidity 40    
Maximum Humidity 58    
Minimum Humidity 21    
Precipitation  
Precipitation 0.00 in 0.05 in 2.90 in (1902)
Month to date precipitation 1.43 1.35  
Year to date precipitation 12.40 13.85  
Sea Level Pressure  
Sea Level Pressure 29.90 in    
Wind  
Wind Speed 8 mph (SSW)    
Max Wind Speed 18 mph    
Max Gust Speed 31 mph    
Visibility 10 miles    
Events Thunderstorm    
T = Trace of Precipitation, MM = Missing Value Source: NWS Daily Summary

Daily Weather History Graph

Daily Weather History Graph

Search for Another Location

Airport or City:

Trip Planner

Search our weather history database for the weather conditions in past years. The results will help you decide how hot, cold, wet, or windy it might be!

Date:

Astronomy

Jul. 22, 2012 Rise Set
Actual Time 6:47 AM CDT 8:43 PM CDT
Civil Twilight 6:19 AM CDT 9:10 PM CDT
Nautical Twilight 5:46 AM CDT 9:43 PM CDT
Astronomical Twilight 5:11 AM CDT 10:18 PM CDT
Moon 10:17 AM CDT (7/22) 10:45 PM CDT (7/22)
Length of Visible Light 14h 50m
Length of Day
13h 56m
Waxing Crescent, 13% of the Moon is Illuminated
Jul 22
Waxing Crescent
Jul 26
First Quarter
Aug 1
Full
Aug 9
Last Quarter
Aug 17
New

Hourly Weather History & Observations

Time (CDT) Temp. Heat Index Dew Point Humidity Pressure Visibility Wind Dir Wind Speed Gust Speed Precip Events Conditions
12:52 AM 82.9 °F 83.3 °F 61.0 °F 47% 29.88 in 10.0 mi Calm Calm - N/A   Mostly Cloudy
1:52 AM 82.9 °F 83.2 °F 60.1 °F 46% 29.88 in 10.0 mi South 3.5 mph - N/A   Clear
2:52 AM 80.1 °F 81.5 °F 63.0 °F 56% 29.87 in 10.0 mi South 6.9 mph - N/A   Scattered Clouds
3:52 AM 79.0 °F - 63.0 °F 58% 29.88 in 10.0 mi SW 5.8 mph - N/A   Clear
4:52 AM 79.0 °F - 61.0 °F 54% 29.89 in 10.0 mi SW 4.6 mph - N/A   Clear
5:52 AM 78.1 °F - 60.1 °F 54% 29.90 in 10.0 mi SSW 4.6 mph - N/A   Clear
6:52 AM 77.0 °F - 60.1 °F 56% 29.91 in 10.0 mi South 3.5 mph - N/A   Clear
7:52 AM 79.0 °F - 62.1 °F 56% 29.92 in 10.0 mi SSW 3.5 mph - N/A   Clear
8:52 AM 84.0 °F 84.5 °F 62.1 °F 47% 29.94 in 10.0 mi SSW 6.9 mph - N/A   Clear
9:52 AM 88.0 °F 87.6 °F 60.1 °F 39% 29.94 in 10.0 mi WSW 5.8 mph - N/A   Clear
10:52 AM 95.0 °F 93.4 °F 55.9 °F 27% 29.94 in 10.0 mi WSW 10.4 mph - N/A   Scattered Clouds
11:52 AM 100.0 °F 98.3 °F 55.0 °F 22% 29.93 in 10.0 mi WNW 9.2 mph 16.1 mph N/A   Clear
12:52 PM 100.9 °F 99.6 °F 55.9 °F 22% 29.91 in 10.0 mi Variable 3.5 mph - N/A   Clear
1:52 PM 102.0 °F 101.1 °F 55.9 °F 22% 29.89 in 10.0 mi North 12.7 mph - N/A   Scattered Clouds
2:52 PM 102.0 °F 101.1 °F 57.0 °F 22% 29.87 in 10.0 mi South 8.1 mph - N/A   Clear
3:52 PM 97.0 °F 96.5 °F 59.0 °F 28% 29.86 in 10.0 mi WSW 13.8 mph - N/A   Partly Cloudy
4:52 PM 98.1 °F 97.2 °F 57.9 °F 26% 29.85 in 10.0 mi SSW 13.8 mph - N/A   Clear
5:52 PM 91.0 °F 90.0 °F 57.9 °F 33% 29.86 in 10.0 mi SSW 9.2 mph - N/A   Clear
6:52 PM 93.0 °F 92.3 °F 59.0 °F 32% 29.89 in 10.0 mi NW 9.2 mph - N/A   Scattered Clouds
7:14 PM 93.2 °F 93.3 °F 60.8 °F 34% 29.98 in 10.0 mi East 3.5 mph - N/A Thunderstorm Mostly Cloudy
7:52 PM 91.9 °F 90.6 °F 57.0 °F 31% 29.88 in 10.0 mi NE 8.1 mph - N/A   Clear
8:52 PM 89.1 °F 87.7 °F 57.0 °F 34% 29.87 in 10.0 mi South 8.1 mph - N/A   Clear
9:52 PM 84.9 °F 83.7 °F 55.9 °F 37% 29.89 in 10.0 mi SSW 5.8 mph - N/A   Clear
10:52 PM 84.9 °F 84.2 °F 57.9 °F 40% 29.91 in 10.0 mi SSE 6.9 mph - N/A   Clear
11:52 PM 86.0 °F 86.1 °F 61.0 °F 43% 29.91 in 10.0 mi SSE 11.5 mph - N/A   Partly Cloudy